FW5813 Weather Reports


time (UTC)temp
C
wind
direction
speed
KPH
gust
KPH
rain 1hr
cm
rain 24hr
cm
rain mn
cm
humidity
%
barometer
mb
20260506155840 25 193 11.3 20.9 0.00 0.00 0.00 41 1002.6
20260506155340 25 167 4.8 19.3 0.00 0.00 0.00 41 1002.6
20260506154840 25 168 3.2 22.5 0.00 0.00 0.00 41 1002.7
20260506154340 25 162 14.5 25.7 0.00 0.00 0.00 41 1002.6
20260506153340 25 166 8.0 20.9 0.00 0.00 0.00 40 1002.5
20260506152840 25 175 3.2 20.9 0.00 0.00 0.00 40 1002.5
20260506152340 25 161 8.0 27.4 0.00 0.00 0.00 40 1002.6
20260506151840 25 155 11.3 27.4 0.00 0.00 0.00 40 1002.8
20260506151340 25 196 14.5 29.0 0.00 0.00 0.00 40 1002.9
20260506150840 25 203 20.9 29.0 0.00 0.00 0.00 40 1003.0
20260506150340 25 180 6.4 20.9 0.00 0.00 0.00 40 1002.9
20260506145840 25 197 6.4 17.7 0.00 0.00 0.00 40 1002.9
20260506145340 25 225 12.9 17.7 0.00 0.00 0.00 40 1003.1
20260506144840 25 187 8.0 17.7 0.00 0.00 0.00 40 1002.9
20260506143840 25 324 3.2 19.3 0.00 0.00 0.00 40 1003.1
20260506143340 25 198 8.0 24.1 0.00 0.00 0.00 40 1003.3
20260506142840 25 151 9.7 24.1 0.00 0.00 0.00 40 1003.3
20260506142340 25 180 8.0 25.7 0.00 0.00 0.00 40 1003.5
20260506141840 25 169 14.5 25.7 0.00 0.00 0.00 40 1003.3
20260506140840 25 160 8.0 29.0 0.00 0.00 0.00 39 1003.5
20260506134840 24 160 17.7 27.4 0.00 0.00 0.00 42 1003.7
20260506134340 24 109 14.5 27.4 0.00 0.00 0.00 42 1003.9
20260506133840 24 170 16.1 25.7 0.00 0.00 0.00 42 1003.6
20260506133340 24 192 8.0 30.6 0.00 0.00 0.00 43 1004.1
20260506132840 24 93 14.5 30.6 0.00 0.00 0.00 42 1004.0
20260506132340 25 188 11.3 25.7 0.00 0.00 0.00 41 1004.2
20260506131840 25 211 14.5 25.7 0.00 0.00 0.00 41 1004.5
20260506131339 25 181 6.4 25.7 0.00 0.00 0.00 41 1004.6
20260506130841 24 151 8.0 29.0 0.00 0.00 0.00 42 1004.8
20260506130340 23 202 14.5 29.0 0.00 0.00 0.00 42 1004.8
20260506125840 25 166 16.1 27.4 0.00 0.00 0.00 41 1005.0
20260506125340 25 230 9.7 22.5 0.00 0.00 0.00 41 1004.8
20260506124839 25 211 6.4 22.5 0.00 0.00 0.00 41 1005.0
20260506124340 25 112 12.9 24.1 0.00 0.00 0.00 42 1005.2
20260506123840 25 188 9.7 24.1 0.00 0.00 0.00 41 1005.2
20260506123341 25 140 9.7 22.5 0.00 0.00 0.00 41 1005.1
20260506122840 25 213 8.0 25.7 0.00 0.00 0.00 40 1005.1
20260506122341 25 234 14.5 25.7 0.00 0.00 0.00 42 1005.3
20260506121840 25 210 3.2 20.9 0.00 0.00 0.00 42 1005.3
20260506121341 24 180 17.7 20.9 0.00 0.00 0.00 43 1005.3
20260506120839 24 185 16.1 20.9 0.00 0.00 0.00 42 1005.4
20260506120341 24 200 20.9 27.4 0.00 0.00 0.00 43 1005.6
20260506115340 24 196 12.9 32.2 0.00 0.00 0.00 43 1005.7
20260506114840 24 138 12.9 27.4 0.00 0.00 0.00 44 1005.8
20260506114340 24 171 25.7 25.7 0.00 0.00 0.00 43 1005.9
20260506113841 24 194 9.7 30.6 0.00 0.00 0.00 42 1006.1
20260506113340 24 209 20.9 37.0 0.00 0.00 0.00 43 1005.9
20260506112840 24 164 14.5 37.0 0.00 0.00 0.00 43 1006.2
20260506112340 24 253 4.8 29.0 0.00 0.00 0.00 43 1006.0
20260506111340 23 167 19.3 27.4 0.00 0.00 0.00 47 1006.0
20260506110840 23 174 6.4 30.6 0.00 0.00 0.00 47 1006.0
20260506110340 23 180 4.8 30.6 0.00 0.00 0.00 45 1006.1
20260506105840 23 194 8.0 30.6 0.00 0.00 0.00 45 1006.3
20260506105340 24 188 12.9 25.7 0.00 0.00 0.00 43 1006.4
20260506103840 23 97 14.5 27.4 0.00 0.00 0.00 46 1006.4
20260506102839 24 99 6.4 25.7 0.00 0.00 0.00 44 1006.3
20260506102340 23 212 14.5 25.7 0.00 0.00 0.00 45 1006.8
20260506101840 23 129 6.4 14.5 0.00 0.00 0.00 44 1006.8
20260506101340 23 219 6.4 20.9 0.00 0.00 0.00 44 1006.8
20260506100839 23 164 11.3 20.9 0.00 0.00 0.00 45 1006.8
20260506100353 23 151 6.4 20.9 0.00 0.00 0.00 45 1007.1
20260506095840 23 231 6.4 14.5 0.00 0.00 0.00 46 1006.8
20260506095339 23 186 3.2 14.5 0.00 0.00 0.00 47 1007.2
20260506094340 23 213 6.4 12.9 0.00 0.00 0.00 45 1007.3
20260506093840 23 203 8.0 19.3 0.00 0.00 0.00 45 1006.9
20260506093340 23 210 6.4 19.3 0.00 0.00 0.00 44 1007.1
20260506092340 23 167 4.8 11.3 0.00 0.00 0.00 43 1007.2
20260506091839 23 124 1.6 11.3 0.00 0.00 0.00 43 1006.8
20260506091339 23 185 6.4 11.3 0.00 0.00 0.00 42 1007.4
20260506090840 23 184 3.2 12.9 0.00 0.00 0.00 43 1007.2
20260506090340 23 173 9.7 12.9 0.00 0.00 0.00 43 1007.1
20260506085840 23 203 8.0 9.7 0.00 0.00 0.00 42 1007.2
20260506084840 23 183 3.2 9.7 0.00 0.00 0.00 44 1007.2
20260506084340 23 188 4.8 9.7 0.00 0.00 0.00 43 1007.1
20260506083841 23 215 3.2 9.7 0.00 0.00 0.00 44 1007.2
20260506083340 23 196 3.2 8.0 0.00 0.00 0.00 43 1007.4
20260506082840 23 73 3.2 4.8 0.00 0.00 0.00 46 1007.2
20260506082340 23 225 3.2 11.3 0.00 0.00 0.00 43 1007.5
20260506081840 22 106 0.0 11.3 0.00 0.00 0.00 44 1007.3
20260506081340 22 188 0.0 9.7 0.00 0.00 0.00 48 1007.5
20260506080339 22 306 3.2 12.9 0.00 0.00 0.00 48 1007.8
20260506073340 21 216 3.2 9.7 0.00 0.00 0.00 54 1008.1
20260506072840 21 245 4.8 14.5 0.00 0.00 0.00 54 1008.0
20260506072340 21 245 3.2 14.5 0.00 0.00 0.00 56 1007.9
20260506071341 20 233 9.7 14.5 0.00 0.00 0.00 58 1008.1
20260506070841 20 249 1.6 11.3 0.00 0.00 0.00 58 1008.1
20260506070340 19 230 9.7 14.5 0.00 0.00 0.00 60 1008.1
20260506061840 18 176 3.2 11.3 0.00 0.00 0.00 69 1007.9
20260506061341 17 235 6.4 11.3 0.00 0.00 0.00 70 1008.1
20260506060340 17 205 6.4 12.9 0.00 0.00 0.00 70 1008.0
20260506051339 15 223 11.3 16.1 0.00 0.00 0.00 81 1007.9
20260506050840 14 232 6.4 9.7 0.00 0.00 0.00 83 1008.0
20260506050340 14 231 3.2 12.9 0.00 0.00 0.00 84 1008.0
20260506044840 14 198 8.0 11.3 0.00 0.00 0.00 84 1007.7
20260506043339 13 230 4.8 9.7 0.00 0.00 0.00 84 1007.8
20260506042840 13 201 8.0 9.7 0.00 0.00 0.00 84 1007.7
20260506042340 13 214 3.2 9.7 0.00 0.00 0.00 85 1007.6
20260506041840 13 198 3.2 8.0 0.00 0.00 0.00 85 1007.7
20260506040344 12 193 3.2 6.4 0.00 0.00 0.00 85 1007.3
20260506035840 13 152 6.4 6.4 0.00 0.00 0.00 84 1007.1
20260506034840 13 195 1.6 3.2 0.00 0.00 0.00 83 1007.2
20260506034339 13 238 0.0 3.2 0.00 0.00 0.00 82 1007.2
20260506033839 13 223 1.6 4.8 0.00 0.00 0.00 82 1007.3
20260506033340 13 143 0.0 6.4 0.00 0.00 0.00 82 1007.4
20260506032840 13 254 0.0 6.4 0.00 0.00 0.00 82 1007.2
20260506032340 13 170 1.6 4.8 0.00 0.00 0.00 82 1007.3
20260506031339 13 173 0.0 3.2 0.00 0.00 0.00 80 1007.3
20260506030840 14 157 0.0 3.2 0.00 0.00 0.00 80 1007.3
20260506030340 14 197 1.6 3.2 0.00 0.00 0.00 80 1007.5
20260506024840 14 229 1.6 4.8 0.00 0.00 0.00 80 1007.1
20260506024340 14 220 0.0 3.2 0.00 0.00 0.00 80 1007.4
20260506023339 14 248 0.0 3.2 0.00 0.00 0.00 79 1007.1
20260506022840 14 262 0.0 3.2 0.00 0.00 0.00 79 1007.0
20260506022340 15 233 1.6 3.2 0.00 0.00 0.00 78 1007.3
20260506021840 15 35 0.0 3.2 0.00 0.00 0.00 77 1007.2
20260506020839 15 344 1.6 4.8 0.00 0.00 0.00 77 1007.4
20260506015840 15 216 3.2 4.8 0.00 0.00 0.00 75 1007.0
20260506015340 15 202 1.6 4.8 0.00 0.00 0.00 75 1007.2
20260506014839 15 186 0.0 3.2 0.00 0.00 0.00 74 1007.0
20260506014340 15 248 1.6 3.2 0.00 0.00 0.00 74 1007.0
20260506013840 16 89 0.0 4.8 0.00 0.00 0.00 73 1006.9
20260506013340 16 326 3.2 6.4 0.00 0.00 0.00 72 1007.0
20260506012340 16 229 0.0 6.4 0.00 0.00 0.00 71 1007.1
20260506011840 16 206 1.6 9.7 0.00 0.00 0.00 70 1007.1
20260506011340 16 212 1.6 9.7 0.00 0.00 0.00 69 1006.9
20260506010340 16 53 3.2 8.0 0.00 0.00 0.00 68 1007.0
20260506005839 16 44 0.0 8.0 0.00 0.00 0.00 68 1006.9
20260506005339 16 207 0.0 6.4 0.00 0.00 0.00 68 1006.8
20260506004840 16 180 0.0 6.4 0.00 0.00 0.00 67 1006.8
20260506002341 15 19 1.6 3.2 0.00 0.00 0.00 71 1006.2
20260506001840 15 355 0.0 3.2 0.00 0.00 0.00 70 1005.9
20260506001339 15 106 0.0 1.6 0.00 0.00 0.00 69 1006.0
20260506000840 15 93 1.6 1.6 0.00 0.00 0.00 69 1006.0
20260506000340 15 89 0.0 3.2 0.00 0.00 0.00 69 1006.0
20260505235840 15 89 0.0 3.2 0.00 0.00 0.00 68 1005.8
20260505235340 15 84 1.6 3.2 0.00 0.00 0.00 68 1005.8
20260505234840 15 103 0.0 4.8 0.00 0.00 0.00 67 1005.8
20260505234339 15 150 0.0 4.8 0.00 0.00 0.00 66 1005.8
20260505233841 16 165 3.2 6.4 0.00 0.00 0.00 65 1005.9
20260505233340 16 219 3.2 6.4 0.00 0.00 0.00 64 1005.9
20260505232340 16 219 0.0 4.8 0.00 0.00 0.00 64 1005.7
20260505231840 16 33 0.0 6.4 0.00 0.00 0.00 65 1005.8
20260505231353 16 223 1.6 6.4 0.00 0.00 0.00 65 1005.5
20260505230840 15 156 0.0 4.8 0.00 0.00 0.00 65 1005.3
20260505230340 15 263 1.6 6.4 0.00 0.00 0.00 65 1005.6
20260505225840 16 305 0.0 8.0 0.00 0.00 0.00 64 1005.3
20260505225340 16 228 3.2 8.0 0.00 0.00 0.00 64 1005.3
20260505224840 16 248 0.0 6.4 0.00 0.00 0.00 64 1005.0
20260505224340 16 230 3.2 9.7 0.00 0.00 0.00 64 1005.3
20260505223839 16 234 3.2 9.7 0.00 0.00 0.00 63 1005.1
20260505223340 16 207 3.2 9.7 0.00 0.00 0.00 63 1005.0
20260505222839 16 257 9.7 9.7 0.00 0.00 0.00 63 1004.9
20260505222340 16 196 3.2 8.0 0.00 0.00 0.00 63 1004.8
20260505221839 16 208 3.2 8.0 0.00 0.00 0.00 62 1004.8
20260505221340 16 198 3.2 6.4 0.00 0.00 0.00 62 1004.6
20260505220841 16 214 4.8 6.4 0.00 0.00 0.00 62 1004.5
20260505215340 16 207 1.6 8.0 0.00 0.00 0.00 61 1004.4
20260505214853 16 178 3.2 8.0 0.00 0.00 0.00 61 1004.4
20260505213840 16 213 3.2 9.7 0.00 0.00 0.00 60 1004.4
20260505213341 16 26 4.8 9.7 0.00 0.00 0.00 61 1004.3
20260505212840 16 230 8.0 12.9 0.00 0.00 0.00 60 1004.3
20260505211840 16 219 6.4 8.0 0.00 0.00 0.00 59 1004.3
20260505211339 16 237 3.2 12.9 0.00 0.00 0.00 59 1004.3
20260505210840 17 217 9.7 14.5 0.00 0.00 0.00 58 1004.1
20260505205339 17 198 8.0 11.3 0.00 0.00 0.00 58 1004.2
20260505204840 17 223 4.8 11.3 0.00 0.00 0.00 57 1003.8
20260505204339 17 166 1.6 16.1 0.00 0.00 0.00 56 1004.0
20260505203840 17 216 8.0 16.1 0.00 0.00 0.00 55 1003.9
20260505203340 17 216 6.4 9.7 0.00 0.00 0.00 55 1003.7
20260505202840 17 153 3.2 14.5 0.00 0.00 0.00 55 1003.4
20260505202339 17 171 8.0 14.5 0.00 0.00 0.00 55 1003.5
20260505201840 17 202 6.4 11.3 0.00 0.00 0.00 55 1003.5
20260505201340 17 147 3.2 11.3 0.00 0.00 0.00 55 1003.5
20260505200840 17 247 3.2 9.7 0.00 0.00 0.00 55 1003.3
20260505200339 18 199 9.7 16.1 0.00 0.00 0.00 54 1003.4
20260505195840 18 175 6.4 17.7 0.00 0.00 0.00 54 1003.3
20260505195340 18 193 6.4 17.7 0.00 0.00 0.00 53 1003.4
20260505194840 18 219 6.4 14.5 0.00 0.00 0.00 52 1003.4
20260505193840 18 238 6.4 25.7 0.00 0.00 0.00 51 1003.5
20260505193340 18 205 4.8 20.9 0.00 0.00 0.00 51 1003.2
20260505192840 18 221 6.4 20.9 0.00 0.00 0.00 51 1003.2
20260505191840 19 166 11.3 20.9 0.00 0.00 0.00 50 1003.2
20260505191340 19 193 9.7 25.7 0.00 0.00 0.00 50 1003.1
20260505190840 19 220 14.5 25.7 0.00 0.00 0.00 49 1003.1
20260505190340 19 191 9.7 19.3 0.00 0.00 0.00 49 1003.2
20260505185339 20 198 8.0 20.9 0.00 0.00 0.00 48 1003.2
20260505184840 20 177 11.3 22.5 0.00 0.00 0.00 48 1003.2
20260505184340 20 239 8.0 22.5 0.00 0.00 0.00 48 1002.9
20260505183839 20 191 12.9 19.3 0.00 0.00 0.00 48 1003.0
20260505183340 20 168 14.5 19.3 0.00 0.00 0.00 47 1003.3
20260505182840 20 190 12.9 17.7 0.00 0.00 0.00 47 1003.3
20260505181841 21 229 8.0 27.4 0.00 0.00 0.00 47 1003.2
20260505181340 21 205 6.4 19.3 0.00 0.00 0.00 46 1003.2
20260505180340 21 208 8.0 17.7 0.00 0.00 0.00 46 1003.1
20260505175840 21 202 9.7 17.7 0.00 0.00 0.00 46 1002.9
20260505175340 21 271 4.8 17.7 0.00 0.00 0.00 46 1002.9
20260505174340 22 194 8.0 22.5 0.00 0.00 0.00 45 1003.1
20260505173340 22 200 12.9 22.5 0.00 0.00 0.00 44 1002.8
20260505172841 22 151 4.8 20.9 0.00 0.00 0.00 43 1002.9
20260505172340 22 211 3.2 30.6 0.00 0.00 0.00 44 1003.0
20260505171840 22 223 9.7 30.6 0.00 0.00 0.00 43 1003.2
20260505171340 22 175 11.3 22.5 0.00 0.00 0.00 43 1003.1
20260505170853 23 226 8.0 17.7 0.00 0.00 0.00 43 1002.9
20260505170340 23 221 11.3 19.3 0.00 0.00 0.00 42 1003.1
20260505165840 23 215 9.7 24.1 0.00 0.00 0.00 42 1003.1
20260505165340 23 158 4.8 24.1 0.00 0.00 0.00 41 1003.1
20260505164337 23 231 8.0 25.7 0.00 0.00 0.00 41 1003.1
20260505163838 23 216 12.9 25.7 0.00 0.00 0.00 40 1003.2
20260505163338 24 194 6.4 17.7 0.00 0.00 0.00 40 1003.0
20260505162338 25 128 8.0 17.7 0.00 0.00 0.00 37 1002.8
20260505161838 25 169 12.9 17.7 0.00 0.00 0.00 37 1002.9
20260505161337 25 187 14.5 29.0 0.00 0.00 0.00 36 1003.1
20260505160837 25 212 16.1 29.0 0.00 0.00 0.00 35 1003.1
20260505160337 25 169 6.4 24.1 0.00 0.00 0.00 36 1003.1